Location: Bathurst
(33.4193°S, 149.5775°E)
Time: 22:52:45
(UTC+10:00)

Vanguard 3 - Pass Details

Date: 29 June 2021
Orbit: 508 x 3261 km, 33.4° (Epoch: 25 July)

Event Time Altitude Azimuth Distance (km) Brightness Sun altitude
Rises 20:50:04 0° 255° (WSW) 6,898 12.6 -46.2°
Reaches altitude 10° 20:54:28 10° 257° (WSW) 6,051 12.1 -47.2°
Maximum altitude 21:14:08 65° 332° (NNW) 3,344 9.9 -51.3°
Enters shadow 21:14:28 65° 337° (NNW) 3,336 9.9 -51.3°
